Regional Weather Roundup
Issued by NWS

Home | Current Version | Previous Version | Text Only | Print | Product List | Glossary On
Versions: 1 2 3 4 5 6 7 8 9 10 11 12 13 14 15 16 17 18 19 20 21 22 23 24 25 26 27 28 29 30 31 32 33 34 35 36 37 38 39 40 41 42 43 44 45 46 47 48 49 50
000
ASUS43 KTOP 301808
RWRKS

WEATHER ROUNDUP FOR KANSAS
NATIONAL WEATHER SERVICE GOODLAND KS
100 PM CDT SAT AUG 30 2014

NOTE:  "FAIR" INDICATES FEW OR NO CLOUDS BELOW 12,000 FEET WITH NO
SIGNIFICANT WEATHER AND/OR OBSTRUCTIONS TO VISIBILITY.

KSZ001>006-013>018-027>032-041>047-301900-
NORTHWEST KANSAS

CITY           SKY/WX    TMP DP  RH WIND       PRES   REMARKS
GOODLAND       SUNNY     84  52  33 S16G22    30.00F
6HR MIN TEMP:  55; 6HR MAX TEMP:  84;

HAYS           SUNNY     88  57  35 S13G22    29.96F
HILL CITY      SUNNY     85  59  41 SW12      29.96F
6HR MIN TEMP:  60; 6HR MAX TEMP:  85;

RUSSELL        SUNNY     84  62  47 S13G18    29.96F
6HR MIN TEMP:  62; 6HR MAX TEMP:  84;

$$

KSZ061>065-074>080-084>089-301900-
SOUTHWEST KANSAS

CITY           SKY/WX    TMP DP  RH WIND       PRES   REMARKS
DODGE CITY     SUNNY     88  48  25 S9G18     30.01F
6HR MIN TEMP:  63; 6HR MAX TEMP:  89;

ELKHART          N/A     86  56  36 S16         N/A
GARDEN CITY    MOSUNNY   86  50  28 S12G21    30.00F
6HR MIN TEMP:  58; 6HR MAX TEMP:  86;

GREAT BEND     SUNNY     84  59  42 S8        29.97F
LIBERAL        MOSUNNY   88  55  33 SE15G21   30.02F
PRATT          SUNNY     86  52  30 S3        30.00F
$$

KSZ066>073-081>083-090>101-301900-
SOUTHEAST KANSAS

CITY           SKY/WX    TMP DP  RH WIND       PRES   REMARKS
CHANUTE        MOSUNNY   90  64  42 N3        29.94F
6HR MIN TEMP:  69; 6HR MAX TEMP:  90;

COFFEYVILLE    SUNNY     89  66  46 MISG      29.94F
6HR MIN TEMP:  72; 6HR MAX TEMP:  89;

HUTCHINSON     MOSUNNY   88  60  38 CALM      29.97F
6HR MIN TEMP:  61; 6HR MAX TEMP:  89;

MEDICINE LODGE   N/A     89  57  33 CALM      29.96F
NEWTON         SUNNY     88  55  33 SE3       30.00F
PARSONS        MOSUNNY   86  66  51 NW3       29.95F
6HR MIN TEMP:  70; 6HR MAX TEMP:  90;

WICHITA INTL   MOSUNNY   89  60  37 CALM      29.95F
6HR MIN TEMP:  64; 6HR MAX TEMP:  89;

WICHITA JABRA  SUNNY     87  58  37 S3        29.95F
6HR MIN TEMP:  62; 6HR MAX TEMP:  88;

WICHITA MCCONL SUNNY     88  58  36 VRB6      29.96F
WINFIELD       SUNNY     88  62  41 SW3       29.96F
6HR MIN TEMP:  65; 6HR MAX TEMP:  89;

$$

KSZ007>012-019>026-033>040-048>060-102>105-301900-
NORTHEAST KANSAS

CITY           SKY/WX    TMP DP  RH WIND       PRES   REMARKS
CONCORDIA      SUNNY     81  64  56 VRB3      29.96F
6HR MIN TEMP:  62; 6HR MAX TEMP:  81;

EMPORIA        SUNNY     87  61  41 N5        29.95F
6HR MIN TEMP:  65; 6HR MAX TEMP:  87;

LAWRENCE       SUNNY     89  67  47 NE5       29.93F
6HR MIN TEMP:  66; 6HR MAX TEMP:  89;

MANHATTAN      SUNNY     86  64  47 VRB3      29.94F
6HR MIN TEMP:  63; 6HR MAX TEMP:  87;

MARYSVILLE     SUNNY     81  66  61 CALM      29.95F
OLATHE IND     SUNNY     86  64  47 VRB3      29.95S
6HR MIN TEMP:  68; 6HR MAX TEMP:  86;

OLATHE EXE     SUNNY     84  64  50 N7        29.94F
6HR MIN TEMP:  68; 6HR MAX TEMP:  84;

SALINA         MOSUNNY   87  60  40 E3        29.96F
6HR MIN TEMP:  64; 6HR MAX TEMP:  87;

TOPEKA BILLARD SUNNY     87  68  52 N6        29.93F
6HR MIN TEMP:  68; 6HR MAX TEMP:  87;

TOPEKA FORBES  SUNNY     85  64  49 CALM      29.94F
6HR MIN TEMP:  65; 6HR MAX TEMP:  87;

$$



USA.gov is the U.S. government's official web portal to all federal, state and local government web resources and services.